Location: Unspecified
(51.0950°N, 12.9690°E)
Time: 22:55:27
(UTC+00:00)

CZ-4C R/B - Pass Details

Date: 28 October 2021
Orbit: 597 x 1405 km, 63.4° (Epoch: 01 December)

Event Time Altitude Azimuth Distance (km) Brightness Sun altitude
Rises 19:38:50 0° 236° (WSW) 3,057 5.5 -35.9°
Reaches altitude 10° 19:41:00 10° 240° (WSW) 2,224 4.7 -36.2°
Enters shadow 19:41:33 13° 242° (WSW) 2,025 4.5 -36.3°
